Location: Melbourne
(37.8170°S, 144.9670°E)
Time: 09:17:12
(UTC+10:00)

Explorer 11/Cluster Stage 4 - Visible Passes

Search period start: 31 July 2014 00:00
Search period end: 10 August 2014 00:00
Orbit: 468 x 1284 km, 28.8° (Epoch: 28 July)

Date Brightness Start Highest point End Pass type
(mag) Time Alt. Az. Time Alt. Az. Time Alt. Az.
05 Aug 8.8 19:20:55 10° N 19:23:37 13° NNE 19:24:39 12° NNE visible
06 Aug 8.7 19:12:56 10° NNW 19:16:57 16° NNE 19:18:44 14° NE visible
06 Aug 9.3 21:00:16 10° NW 21:01:11 13° NW 21:01:11 13° NW visible
07 Aug 8.6 19:05:20 10° NNW 19:10:17 20° NNE 19:12:48 16° NE visible
07 Aug 9.0 20:53:14 10° NW 20:55:14 18° NW 20:55:14 18° NW visible
08 Aug 8.5 18:57:56 10° NNW 19:03:36 23° NNE 19:06:50 16° NE visible
08 Aug 8.7 20:46:15 10° WNW 20:49:15 23° NW 20:49:15 23° NW visible
09 Aug 8.5 18:50:39 10° NW 18:56:53 27° NNE 19:00:50 16° ENE visible
09 Aug 8.5 20:39:18 10° WNW 20:43:15 28° NW 20:43:15 28° NW visible
